K2ZVL Weather Reports


time (UTC)temp
F
wind
direction
speed
knots
gust
knots
rain 1hr
in
rain 24hr
in
rain mn
in
humidity
%
barometer
mb
20260506043842 50 250 0.0 0.0 0.03 0.16 0.02 65 1007.6
20260506042842 50 250 0.0 0.9 0.03 0.16 0.02 65 1007.4
20260506041842 51 250 0.0 0.9 0.03 0.16 0.02 66 1007.6
20260506040842 51 250 0.0 0.0 0.02 0.15 0.01 66 1008.0
20260506035912 51 250 0.0 1.7 0.01 0.14 0.00 66 1007.7
20260506034842 51 250 1.7 1.7 0.01 0.13 0.13 67 1007.6
20260506033912 51 107 0.0 0.0 0.01 0.13 0.13 69 1007.2
20260506032842 51 107 0.0 0.9 0.01 0.13 0.13 69 1007.1
20260506031842 51 107 0.0 1.7 0.01 0.13 0.13 70 1007.2
20260506030843 51 317 0.0 0.9 0.01 0.13 0.13 71 1007.1
20260506025843 51 317 0.0 0.9 0.01 0.13 0.13 72 1007.0
20260506024842 52 317 0.0 0.9 0.00 0.12 0.12 73 1007.5
20260506023842 52 317 0.0 1.7 0.01 0.12 0.12 75 1007.1
20260506022842 52 317 0.9 4.3 0.02 0.12 0.12 76 1007.5
20260506021842 52 325 1.7 8.7 0.02 0.12 0.12 77 1007.2
20260506020842 53 302 3.5 8.7 0.02 0.12 0.12 77 1007.3
20260506014842 54 309 2.6 7.8 0.03 0.12 0.12 76 1006.6
20260506013842 55 13 1.7 7.0 0.02 0.11 0.11 77 1006.4
20260506012843 56 342 0.9 4.3 0.01 0.10 0.10 77 1006.4
20260506011842 57 309 1.7 3.5 0.01 0.10 0.10 75 1006.1
20260506005842 57 282 0.0 4.3 0.00 0.09 0.09 70 1005.8
20260506004842 57 243 0.0 0.9 0.00 0.09 0.09 69 1005.6
20260506002842 57 167 0.0 0.9 0.00 0.09 0.09 70 1005.2
20260506001841 57 145 0.0 0.0 0.00 0.09 0.09 70 1004.8
20260506000841 57 145 0.0 0.9 0.01 0.09 0.09 71 1004.6
20260505235912 58 125 0.0 2.6 0.01 0.09 0.09 74 1003.9
20260505234841 58 265 0.0 2.6 0.01 0.09 0.09 76 1004.6
20260505233842 59 265 0.0 1.7 0.01 0.09 0.09 76 1004.3
20260505232842 59 265 0.0 1.7 0.01 0.09 0.09 76 1004.3
20260505231841 60 212 0.0 5.2 0.01 0.09 0.09 76 1004.1
20260505230842 61 240 0.0 4.3 0.00 0.08 0.08 74 1003.8
20260505222841 62 142 0.0 3.5 0.00 0.08 0.08 71 1003.7
20260505221842 64 127 1.7 5.2 0.00 0.08 0.08 68 1003.6
20260505214841 64 59 1.7 6.1 0.00 0.08 0.08 64 1003.3
20260505213841 64 275 1.7 7.0 0.00 0.08 0.08 63 1003.3
20260505212841 65 123 4.3 5.2 0.00 0.08 0.08 63 1003.7
20260505210911 65 267 1.7 10.4 0.00 0.08 0.08 63 1004.0
20260505205941 64 215 0.9 9.6 0.00 0.08 0.08 65 1003.6
20260505203841 62 309 1.7 14.8 0.00 0.08 0.08 66 1003.5
20260505202841 63 240 7.0 18.2 0.00 0.08 0.08 61 1003.4
20260505201841 64 248 18.2 18.2 0.00 0.08 0.08 60 1003.5
20260505200841 64 272 6.1 15.6 0.00 0.08 0.08 60 1003.0
20260505195911 63 321 2.6 7.8 0.00 0.08 0.08 65 1002.8
20260505193844 68 320 4.3 13.9 0.00 0.08 0.08 52 1002.5
20260505192843 70 222 4.3 13.0 0.00 0.08 0.08 48 1002.4
20260505191843 71 214 2.6 13.0 0.03 0.08 0.08 47 1002.3
20260505190912 70 242 4.3 19.1 0.03 0.08 0.08 49 1002.2
20260505185842 69 231 2.6 8.7 0.05 0.08 0.08 56 1002.4
20260505184912 68 247 3.5 6.1 0.05 0.08 0.08 61 1002.3
20260505183842 66 291 1.7 11.3 0.05 0.08 0.08 68 1002.2
20260505182842 63 42 2.6 18.2 0.05 0.08 0.08 70 1002.1
20260505181842 65 288 0.9 8.7 0.02 0.05 0.05 67 1002.1
20260505175912 71 247 3.5 13.0 0.00 0.03 0.03 46 1002.2
20260505174842 72 174 0.0 13.0 0.00 0.03 0.03 43 1002.0
20260505173842 72 223 3.5 11.3 0.00 0.03 0.03 43 1002.0
20260505172842 72 196 4.3 13.0 0.00 0.03 0.03 43 1001.9
20260505171841 72 341 3.5 11.3 0.00 0.03 0.03 42 1001.8
20260505165841 73 16 2.6 14.8 0.00 0.03 0.03 43 1001.9
20260505164842 73 102 6.1 12.2 0.00 0.03 0.03 42 1001.8
20260505163842 73 82 11.3 15.6 0.00 0.03 0.03 43 1001.9
20260505162841 73 338 0.0 13.9 0.00 0.03 0.03 44 1002.1
20260505161842 72 219 6.1 12.2 0.00 0.03 0.03 45 1002.2
20260505160841 71 302 2.6 11.3 0.00 0.03 0.03 47 1002.4
20260505152842 71 319 0.9 11.3 0.00 0.03 0.03 48 1002.3
20260505151841 70 165 9.6 9.6 0.00 0.03 0.03 48 1002.2
20260505122840 56 241 0.0 7.0 0.00 0.01 0.01 74 1003.8
20260505120841 56 159 0.9 4.3 0.00 0.01 0.01 74 1003.9
20260505115911 55 279 0.9 2.6 0.00 0.01 0.01 76 1003.9
20260505114841 54 165 0.9 2.6 0.00 0.01 0.01 77 1004.1
20260505113841 53 265 0.9 3.5 0.00 0.01 0.01 76 1003.9
20260505112841 52 194 0.0 0.9 0.00 0.01 0.01 75 1003.7
20260505111841 51 194 0.0 1.7 0.01 0.01 0.01 74 1003.7
20260505110841 51 213 0.0 0.9 0.01 0.01 0.01 75 1003.7
20260505101841 53 213 0.0 3.5 0.00 0.00 0.00 72 1004.0
20260505100840 53 224 2.6 4.3 0.00 0.00 0.00 72 1004.2
20260505095841 53 214 0.0 2.6 0.00 0.00 0.00 69 1004.1
20260505094841 54 279 0.0 1.7 0.00 0.00 0.00 69 1004.1
20260505093841 54 279 0.0 2.6 0.00 0.00 0.00 67 1004.0
20260505091841 54 101 0.0 3.5 0.00 0.00 0.00 68 1003.6
20260505090841 54 138 1.7 4.3 0.00 0.00 0.00 69 1003.8
20260505084841 54 306 0.0 1.7 0.00 0.00 0.00 65 1004.2
20260505082841 55 306 0.0 3.5 0.00 0.00 0.00 61 1004.6
20260505081841 55 103 0.0 6.1 0.00 0.00 0.00 59 1004.5
20260505080840 56 290 0.0 4.3 0.00 0.00 0.00 59 1004.4
20260505075911 56 179 2.6 6.1 0.00 0.00 0.00 59 1004.2
20260505074841 56 215 0.0 4.3 0.00 0.00 0.00 59 1004.1
20260505073841 56 142 0.0 3.5 0.00 0.00 0.00 59 1004.2
20260505072841 56 128 0.0 6.1 0.00 0.00 0.00 59 1004.2
20260505071841 55 317 0.0 4.3 0.00 0.00 0.00 59 1004.0
20260505070840 55 213 0.0 7.0 0.00 0.00 0.00 59 1003.9
20260505065841 55 202 0.0 5.2 0.00 0.00 0.00 59 1004.0
20260505063841 55 265 0.0 6.1 0.00 0.00 0.00 59 1004.1
20260505062841 55 292 0.0 5.2 0.00 0.00 0.00 59 1004.2
20260505061841 55 207 0.0 4.3 0.00 0.00 0.00 58 1004.3
20260505060841 55 316 0.0 7.8 0.00 0.00 0.00 57 1004.3
20260505054841 55 35 0.0 6.1 0.00 0.00 0.00 58 1004.2
20260505053841 54 107 2.6 5.2 0.00 0.00 0.00 59 1004.2
20260505050840 53 221 0.0 2.6 0.00 0.00 0.00 62 1004.3